Starlink 3926

operational
NORAD ID: 52543 Int'l Des: 2022-051 Owner: SPXS Country: US Constellation: starlink
LEOCIRCULAR

Über Starlink 3926

Beschreibung wird geladen...

Live-Position

3D-Globus wird geladen...

Nächste Überflüge

Höhenverlauf

Altitude vs Time

uPlot chart will show altitude changes over time

Zweizeiliger Elementsatz

1 52543U 22051L 25347.64583817 .00000347 00000-0 39878-4 0 9995
2 52543 53.2168 155.3874 0001293 93.4165 266.6975 15.08835262198450
Epoch: 13. Dez. 2025 • Age: 21 hours

Aktueller Status

Höhe 543.5 km
Geschwindigkeit 7.59 km/s
Subsatellitenpunkt -12.58°S, 122.9°W
Startdatum 13. Mai 2022
Alter 3.5 years
Typ internet

Technische Details

Klassifizierung Payload
Masse 297.00 kg
Trockenmasse 275.00 kg
Gesamtmasse 297.00 kg
Länge 0.20 m
Durchmesser 2.80 m
Spannweite 9.00 m
Form Box + pan
Hersteller SPXS
Bus-Typ Starlink
Phasenstatus In Orbit
Besitzer/Staat SPXS/US

Große Konstellationen

Loading constellations...